CZ-4C R/B - Orbit

View from above orbital plane
View from above orbital plane
View from above satellite
View from above satellite

Ground track
Ground track

The orbit data is extracted from the following two-line orbital elements,

1 32290U 07055B   13141.19397900  .00004015  00000-0  18318-3 0  5867
2 32290 097.6219 208.4235 0097392 333.1203 059.6835 15.17039258304768
Epoch (UTC): 21 May 2013 04:39:19
Eccentricity: 0.0097392
inclination: 97.6219°
perigee height: 447 km
apogee height: 582 km
right ascension of ascending node: 208.4235°
argument of perigee: 333.1203°
revolutions per day: 15.17039258
mean anomaly at epoch: 59.6835°
orbit number at epoch: 30476

The dashed part of the orbit path shows where the satellite is in the earth's shadow,  

Developed and maintained by Chris Peat, Heavens-Above GmbH. Please read the updated FAQ before sending e-mail. Imprint. DLR